Flag for Brazil Weather past 2 weeks in Cuiabá, Mato Grosso, Brazil

Now
70 °F

Overcast.


Feels Like: 70 °F
Forecast: 63 / 72 °F
Wind: 14 mph from Southwest

Location: Cuiaba Aeroporto

Current Time: Jul 4, 2015 at 9:49:17 AM

Latest Report: Jul 4, 2015 at 9:00 AM


Visibility: N/A

Pressure: 30.12 "Hg

Humidity: 73%

Dew point: 61 °F

Location of CuiabáLocation

Historic Weather in Cuiabá — Graph

°F

Cuiabá temperature yesterday

Maximum temperature yesterday: 93 °F (at 12:00 PM)
Minimum temperature yesterday: 68 °F (at 6:00 AM)
Average temperature yesterday: 81 °F

Past Weeks' High & Low Weather Summary

 TemperatureHumidityPressure
High93 °F (Jul 2, 12:00 PM)100% (Jun 21, 6:00 AM)30.24 "Hg (Jun 21, 6:00 AM)
Low61 °F (Jun 19, 8:00 AM)22% (Jun 24, 3:00 PM)29.83 "Hg (Jul 2, 4:00 PM)
Average77 °F62%30.04 "Hg
* Reported Jun 19 8:00 AM — Jul 4 8:00 AM, Cuiabá, Weather by CustomWeather, © 2015

Note: Actual official high and low records may vary slightly from our data, if they occured in-between our weather recording intervals... More about our weather records

Advertising

Cuiabá weather history for previous 24 hours

 ConditionsComfort  
Time TempWeatherWind HumidityBarometerVisibility
8:00 AM
Sat, Jul 4
68 °FLow clouds.14 mph83%30.09 "Hg4 mi
7:00 AM70 °FLow clouds.13 mph83%30.07 "HgN/A
6:00 AM72 °FPassing clouds.12 mph83%30.04 "HgN/A
5:00 AM72 °FPassing clouds.9 mph83%30.01 "HgN/A
4:00 AM73 °FPassing clouds.13 mph78%30.01 "HgN/A
3:00 AM73 °FOvercast.13 mph83%29.98 "HgN/A
2:00 AM75 °FPartly cloudy.16 mph78%29.98 "HgN/A
1:00 AM77 °FClear.10 mph65%29.95 "Hg10 mi
12:00 AM75 °FClear.5 mph69%29.95 "Hg10 mi
11:00 PM
Fri, Jul 3
73 °FClear.No wind74%29.92 "Hg10 mi
10:00 PM77 °FClear.No wind61%29.95 "Hg10 mi
9:00 PM77 °FClear.3 mph65%29.92 "Hg10 mi
8:00 PM77 °FClear.2 mph61%29.92 "Hg10 mi
7:00 PM86 °FClear.3 mph43%29.89 "Hg10 mi
6:00 PM88 °FPassing clouds.7 mph38%29.89 "HgN/A
5:00 PM90 °FPassing clouds.7 mph36%29.86 "HgN/A
4:00 PM93 °FScattered clouds.8 mph30%29.86 "HgN/A
3:00 PM93 °FScattered clouds.15 mph34%29.86 "HgN/A
2:00 PM93 °FScattered clouds.10 mph32%29.89 "HgN/A
1:00 PM93 °FPassing clouds.16 mph32%29.92 "HgN/A
12:00 PM93 °FPassing clouds.15 mph32%29.95 "HgN/A
11:00 AM91 °FSunny.16 mph36%29.95 "Hg10 mi
10:00 AM88 °FSunny.12 mph38%29.98 "Hg10 mi
9:00 AM82 °FSunny.6 mph48%29.98 "Hg10 mi
Weather by CustomWeather, © 2015

See weather overviewHow to use our weather pages